Weather observations for the past three days for
Nampa Municipal Airport
Imperial (Metric)
Date Time (mdt) Wind (mph) Vis. (mi.) Weather Sky Cond. Temperature (ºF) Relative Humidity Wind Chill (°F) Heat Index (°F) Pressure Precipitation (in)
Air Dwpt 6 hour altimeter (in) sea level (mb) 1 hr 3 hr 6 hr
Max. Min.
15 15:15 W 8 8.00 Fair CLR 96.8 51.8 22% 94 30.01 0.0
15 14:55 NW 9 10.00 Fair CLR 95 51.8 23% 92 30.02 0.0
15 14:35 W 8 10.00 Fair CLR 95 51.8 23% 92 30.03 0.0
15 14:15 W 6 G 15 10.00 Fair CLR 93.2 51.8 24% 90 30.03 0.0
15 13:55 NW 8 10.00 Fair CLR 93.2 51.8 24% 90 30.04 0.0
15 13:35 Vrbl 6 9.00 Fair CLR 93.2 53.6 26% 91 30.05 0.0
15 13:15 Calm 10.00 Fair CLR 91.4 53.6 28% 89 30.06 0.0
15 12:55 W 7 10.00 Fair CLR 89.6 53.6 29% 87 30.06 0.0
15 12:35 Vrbl 5 10.00 Fair CLR 87.8 53.6 31% 86 30.07 0.0
15 12:15 NW 5 10.00 Fair CLR 87.8 51.8 29% 85 30.07 0.0
15 11:55 Vrbl 5 10.00 Fair CLR 86 51.8 31% 84 30.08 0.0
15 11:35 Vrbl 5 10.00 Fair CLR 86 51.8 31% 84 30.08 0.0
15 11:15 Vrbl 6 9.00 Fair CLR 86 50 29% 84 30.08 0.0
15 10:55 N 9 10.00 Fair CLR 84.2 48.2 29% 82 30.08 0.0
15 10:35 N 7 10.00 Fair CLR 82.4 50 32% 81 30.08 0.0
15 10:15 Vrbl 6 10.00 Fair CLR 82.4 51.8 35% 81 30.08 0.0
15 09:55 NW 7 10.00 Fair CLR 80.6 50 34% 80 30.08 0.0
15 09:35 NW 8 10.00 Fair CLR 80.6 50 34% 80 30.08 0.0
15 09:15 N 5 10.00 Fair CLR 78.8 51.8 39% 79 30.08 0.0
15 08:55 NW 6 10.00 Fair CLR 80.6 50 34% 80 30.07 0.0
15 08:35 N 7 10.00 Fair CLR 78.8 51.8 39% 79 30.07 0.0
15 08:15 N 3 10.00 Fair CLR 77 51.8 42% 78 30.07 0.0
15 07:55 Calm 7.00 Fair CLR 73.4 59 61% 30.07 0.0
15 07:35 Calm 9.00 Fair CLR 71.6 57.2 61% 30.06 0.0
15 07:15 Calm 9.00 Fair CLR 71.6 57.2 61% 30.05 0.0
15 06:55 Calm 8.00 Fair CLR 71.6 55.4 57% 30.05 0.0
15 06:35 Calm 10.00 Fair CLR 71.6 57.2 61% 30.05 0.0
15 06:15 Calm 10.00 Partly Cloudy SCT090 69.8 60.8 73% 30.05 0.0
15 05:55 Calm 10.00 Overcast OVC090 71.6 55.4 57% 30.04 0.0
15 05:35 Calm 10.00 Overcast OVC090 71.6 60.8 69% 30.04 0.0
15 05:15 Calm 10.00 Overcast FEW065 SCT075 OVC090 75.2 55.4 50% 78 30.04 0.0
15 04:55 Calm 10.00 Overcast SCT070 BKN075 OVC090 73.4 59 61% 30.03 0.0
15 04:35 Calm 10.00 Overcast OVC090 77 53.6 44% 78 30.03 0.0
15 04:15 Calm 10.00 Overcast OVC090 75.2 57.2 54% 78 30.02 0.0
15 03:55 Calm 10.00 Overcast OVC085 78.8 53.6 42% 79 30.02 0.0
15 03:15 Calm 10.00 A Few Clouds FEW050 FEW060 FEW110 75.2 57.2 54% 78 30.02 0.0
15 02:55 SW 5 10.00 A Few Clouds FEW050 FEW060 FEW110 75.2 57.2 54% 78 30.01 0.0
15 02:35 Calm 10.00 Fair CLR 78.8 55.4 45% 79 30.01 0.0
15 02:15 Calm 10.00 A Few Clouds FEW100 78.8 55.4 45% 79 30.02 0.0
15 01:55 Calm 10.00 Partly Cloudy SCT100 78.8 55.4 45% 79 30.02 0.0
15 01:35 E 5 10.00 A Few Clouds FEW100 78.8 53.6 42% 79 30.02 0.0
15 01:15 Calm 10.00 Partly Cloudy FEW080 SCT095 SCT110 77 57.2 51% 79 30.02 0.0
15 00:55 E 3 10.00 Mostly Cloudy FEW055 SCT090 BKN110 77 59 54% 79 30.02 0.0
15 00:35 Calm 10.00 Mostly Cloudy FEW055 BKN110 77 57.2 51% 79 30.02 0.0
15 00:15 Calm 10.00 Fair CLR 78.8 55.4 45% 79 30.02 0.0
14 23:55 E 5 10.00 Fair CLR 78.8 57.2 48% 80 30.01 0.0
14 23:35 S 7 10.00 Fair CLR 78.8 57.2 48% 80 30.01 0.0
14 23:15 Calm 10.00 Partly Cloudy FEW050 SCT120 86 51.8 31% 84 30.02 0.0
14 22:55 Calm 10.00 Mostly Cloudy FEW060 FEW070 BKN120 80.6 55.4 42% 81 30.01 0.0
14 22:35 Calm 10.00 Mostly Cloudy SCT060 BKN075 BKN100 82.4 55.4 40% 82 30.02 0.0
14 22:15 Calm 10.00 Fair CLR 84.2 53.6 35% 83 30.01 0.0
14 21:55 W 7 10.00 Fair CLR 84.2 53.6 35% 83 30.01 0.0
14 21:35 W 6 10.00 Fair CLR 86 53.6 33% 84 30 0.0
14 21:15 W 7 9.00 Fair CLR 87.8 53.6 31% 86 29.99 0.0
14 20:55 W 9 9.00 Fair CLR 87.8 53.6 31% 86 29.99 0.0
14 20:35 NW 8 8.00 Fair CLR 87.8 53.6 31% 86 29.99 0.0
14 20:15 NW 12 8.00 Fair CLR 89.6 53.6 29% 87 29.99 0.0
14 19:55 NW 12 G 18 8.00 Fair CLR 89.6 51.8 27% 87 29.99 0.0
14 19:35 NW 16 G 23 6.00 Fair with Haze CLR 91.4 51.8 26% 89 29.99 0.0
14 19:15 NW 22 G 28 5.00 Fair with Haze and Breezy CLR 93.2 50 23% 90 29.99 0.0
14 18:55 NW 18 8.00 Fair CLR 95 50 22% 92 29.98 0.0
14 18:35 W 16 G 23 10.00 Fair CLR 96.8 53.6 23% 95 29.98 0.0
14 18:15 NW 7 10.00 Fair CLR 95 53.6 25% 93 29.98 0.0
14 17:55 N 7 10.00 Fair CLR 95 50 22% 92 29.98 0.0
14 17:35 N 6 10.00 Fair CLR 96.8 50 20% 94 29.99 0.0
14 17:15 N 7 10.00 Fair CLR 95 50 22% 92 29.99 0.0
14 16:55 NW 6 10.00 Fair CLR 95 50 22% 92 30 0.0
14 16:35 NE 5 10.00 Fair CLR 95 50 22% 92 30 0.0
14 16:15 NE 5 G 13 10.00 Fair CLR 95 50 22% 92 30.01 0.0
14 15:55 Calm 10.00 Fair CLR 91.4 51.8 26% 89 30.01 0.0
14 15:35 SW 7 10.00 A Few Clouds FEW080 91.4 53.6 28% 89 30.02 0.0
14 15:15 Calm 10.00 Fair CLR 91.4 55.4 30% 90 30.01 0.0
14 14:55 Calm 10.00 Fair CLR 91.4 51.8 26% 89 30.01 0.0
14 14:35 Calm 10.00 Fair CLR 91.4 50 24% 88 30 0.0
14 14:15 Calm 10.00 Fair CLR 89.6 50 26% 87 30 0.0
14 13:55 Calm 10.00 Fair CLR 89.6 50 26% 87 30 0.0
14 13:35 Calm 10.00 Fair CLR 89.6 53.6 29% 87 30 0.0
14 13:15 W 7 10.00 Fair CLR 91.4 55.4 30% 90 30 0.0
14 12:55 W 9 10.00 Fair CLR 91.4 55.4 30% 90 30 0.0
14 12:35 SW 5 10.00 Fair CLR 93.2 53.6 26% 91 30 0.0
14 12:15 Calm 10.00 Fair CLR 93.2 55.4 28% 91 29.99 0.0
14 11:55 Vrbl 5 9.00 Fair CLR 89.6 53.6 29% 87 29.99 0.0
14 11:35 W 7 10.00 Fair CLR 89.6 57.2 33% 88 30 0.0
14 11:15 Calm 10.00 Fair CLR 87.8 57.2 35% 87 30 0.0
14 10:55 Calm 10.00 Fair CLR 86 59 40% 85 30 0.0
14 10:35 Calm 10.00 Fair CLR 82.4 59 45% 82 30 0.0
14 10:15 Calm 9.00 Fair CLR 80.6 59 48% 81 30 0.0
14 09:55 E 5 10.00 Fair CLR 80.6 59 48% 81 30 0.0
14 09:35 Calm 10.00 Fair CLR 78.8 57.2 48% 80 30 0.0
14 09:15 Calm 10.00 Fair CLR 78.8 57.2 48% 80 30 0.0
14 08:55 Calm 10.00 Fair CLR 78.8 53.6 42% 79 29.99 0.0
14 08:35 E 3 10.00 Fair CLR 77 53.6 44% 78 29.98 0.0
14 08:15 Calm 10.00 Fair CLR 75.2 53.6 47% 78 29.98 0.0
14 07:55 SE 3 10.00 Fair CLR 75.2 53.6 47% 78 29.98 0.0
14 07:35 Calm 10.00 Fair CLR 73.4 53.6 50% 29.97 0.0
14 07:15 Calm 10.00 Fair CLR 71.6 55.4 57% 29.96 0.0
14 06:55 Calm 10.00 Fair CLR 73.4 55.4 53% 29.96 0.0
14 06:15 Calm 10.00 Partly Cloudy FEW047 SCT055 73.4 53.6 50% 29.96 0.0
14 05:55 NE 7 10.00 Overcast BKN047 OVC055 77 53.6 44% 78 29.95 0.0
14 05:35 N 7 10.00 Overcast SCT039 OVC047 77 53.6 44% 78 29.94 0.0
14 05:15 Calm 10.00 Overcast BKN039 OVC049 77 53.6 44% 78 29.94 0.0
14 04:55 Calm 10.00 Overcast BKN044 OVC050 75.2 53.6 47% 78 29.95 0.0
14 04:35 Calm 10.00 Overcast BKN046 BKN070 OVC090 75.2 53.6 47% 78 29.94 0.0
14 04:15 SE 5 10.00 Overcast OVC090 75.2 53.6 47% 78 29.94 0.0
14 03:55 Calm 10.00 Overcast OVC080 73.4 53.6 50% 29.93 0.0
14 03:35 Calm 10.00 Overcast OVC080 73.4 53.6 50% 29.93 0.0
14 03:15 Calm 10.00 Overcast OVC075 77 51.8 42% 78 29.92 0.0
14 02:55 Calm 8.00 Overcast OVC070 77 51.8 42% 78 29.93 0.0
14 02:35 SE 3 10.00 Overcast FEW037 FEW055 OVC070 78.8 50 37% 79 29.93 0.0
14 02:15 E 7 10.00 Overcast FEW038 BKN050 OVC065 78.8 51.8 39% 79 29.93 0.0
14 01:55 N 9 10.00 Overcast BKN050 OVC060 82.4 51.8 35% 81 29.93 0.0
14 01:35 N 8 10.00 Overcast FEW048 SCT055 OVC065 84.2 53.6 35% 83 29.94 0.0
14 01:15 E 3 10.00 Overcast FEW030 BKN043 OVC050 77 55.4 47% 79 29.93 0.0
14 00:55 Calm 10.00 Overcast FEW027 BKN035 OVC042 78.8 55.4 45% 79 29.93 0.0
14 00:35 Calm 10.00 Mostly Cloudy FEW027 SCT034 BKN043 78.8 55.4 45% 79 29.94 0.0
14 00:15 S 5 10.00 A Few Clouds FEW043 FEW055 78.8 55.4 45% 79 29.94 0.0
13 23:55 E 5 10.00 A Few Clouds FEW050 80.6 57.2 45% 81 29.93 0.0
13 23:35 Calm 10.00 A Few Clouds FEW046 FEW050 82.4 57.2 42% 82 29.94 0.0
13 23:15 Calm 10.00 A Few Clouds FEW047 FEW055 82.4 55.4 40% 82 29.93 0.0
13 22:55 NE 6 10.00 A Few Clouds FEW050 FEW060 86 53.6 33% 84 29.92 0.0
13 22:35 Calm 9.00 Partly Cloudy FEW046 SCT055 82.4 59 45% 82 29.91 0.0
13 22:15 Calm 10.00 A Few Clouds FEW046 FEW055 86 59 40% 85 29.9 0.0
13 21:55 SE 5 10.00 Fair CLR 84.2 60.8 45% 84 29.89 0.0
13 21:35 Calm 6.00 Fair with Haze CLR 87.8 60.8 40% 88 29.89 0.0
13 21:15 Calm 10.00 Fair CLR 89.6 62.6 41% 90 29.89 0.0
13 20:55 Calm 10.00 Fair CLR 93.2 60.8 34% 93 29.89 0.0
13 20:35 Calm 10.00 Fair CLR 95 60.8 32% 95 29.89 0.0
13 20:15 Calm 10.00 Fair CLR 98.6 57.2 25% 98 29.89 0.0
13 19:55 Calm 10.00 Fair CLR 100.4 51.8 20% 98 29.89 0.0
13 19:35 E 3 10.00 Fair CLR 102.2 50 17% 99 29.89 0.0
13 19:15 E 3 10.00 Fair CLR 102.2 50 17% 99 29.89 0.0
13 18:55 E 5 10.00 Fair CLR 102.2 48.2 16% 99 29.89 0.0
13 18:35 NE 6 10.00 Fair CLR 104 46.4 14% 100 29.9 0.0
13 18:15 NE 8 10.00 Fair CLR 104 46.4 14% 100 29.91 0.0
13 17:55 NE 7 10.00 Fair CLR 104 46.4 14% 100 29.91 0.0
13 17:35 NE 9 10.00 Fair CLR 104 44.6 13% 100 29.92 0.0
13 17:15 Vrbl 5 10.00 Fair CLR 104 42.8 12% 99 29.93 0.0
13 16:55 NE 6 10.00 Fair CLR 104 42.8 12% 99 29.94 0.0
13 16:35 E 7 10.00 Fair CLR 104 48.2 15% 101 29.94 0.0
13 16:15 NE 6 10.00 Fair CLR 102.2 48.2 16% 99 29.95 0.0
13 15:55 Calm 9.00 Fair CLR 100.4 53.6 21% 98 29.96 0.0
13 15:35 Calm 10.00 Fair CLR 98.6 50 19% 95 29.97 0.0
13 15:15 Calm 10.00 Fair CLR 98.6 51.8 21% 96 29.97 0.0
13 14:55 N 5 10.00 Fair CLR 96.8 53.6 23% 95 29.98 0.0
13 14:35 NW 3 10.00 Fair CLR 96.8 50 20% 94 29.99 0.0
13 14:15 N 6 10.00 Fair CLR 96.8 51.8 22% 94 29.99 0.0
13 13:55 NW 6 10.00 Fair CLR 96.8 50 20% 94 30 0.0
13 13:35 Calm 10.00 Fair CLR 95 50 22% 92 30 0.0
13 13:15 W 3 10.00 Fair CLR 93.2 53.6 26% 91 30.01 0.0
13 12:55 Vrbl 6 9.00 Fair CLR 93.2 51.8 24% 90 30.01 0.0
13 12:35 Vrbl 6 10.00 Fair CLR 91.4 51.8 26% 89 30.01 0.0
13 12:15 N 8 9.00 Fair CLR 89.6 53.6 29% 87 30.01 0.0
13 11:55 N 7 9.00 Fair CLR 87.8 53.6 31% 86 30.02 0.0
13 11:35 Vrbl 5 10.00 Fair CLR 87.8 53.6 31% 86 30.02 0.0
13 11:15 N 5 7.00 Fair CLR 86 53.6 33% 84 30.02 0.0
13 10:55 Calm 9.00 Fair CLR 84.2 55.4 37% 83 30.03 0.0
13 10:35 Vrbl 5 9.00 Fair CLR 82.4 55.4 40% 82 30.03 0.0
13 10:15 NW 3 10.00 Fair CLR 80.6 55.4 42% 81 30.03 0.0
13 09:55 Calm 9.00 Fair CLR 78.8 57.2 48% 80 30.03 0.0
13 09:35 Calm 9.00 Fair CLR 77 59 54% 79 30.03 0.0
13 09:15 Calm 9.00 Fair CLR 73.4 59 61% 30.03 0.0
13 08:55 Calm 9.00 Fair CLR 73.4 55.4 53% 30.02 0.0
13 08:35 Calm 9.00 Fair CLR 71.6 55.4 57% 30.02 0.0
13 08:15 Calm 9.00 Fair CLR 68 55.4 64% 30.02 0.0
13 07:35 Calm 9.00 Fair CLR 66.2 57.2 73% 30.01 0.0
13 07:15 Calm 9.00 Fair CLR 64.4 57.2 78% 30.01 0.0
13 06:55 Calm 9.00 Fair CLR 62.6 57.2 83% 30 0.0
13 06:35 Calm 9.00 Fair CLR 64.4 57.2 78% 30 0.0
13 06:15 SE 5 10.00 Mostly Cloudy BKN037 BKN050 62.6 59 88% 29.99 0.0
13 05:55 Calm 10.00 Mostly Cloudy BKN033 BKN039 BKN046 62.6 60.8 94% 29.99 0.0
13 05:35 Calm 10.00 Mostly Cloudy BKN031 BKN038 BKN044 64.4 59 83% 29.98 0.0
13 05:15 Calm 10.00 Mostly Cloudy FEW032 SCT038 BKN045 66.2 59 78% 29.97 0.0
13 04:55 Calm 10.00 Mostly Cloudy SCT032 SCT044 BKN055 64.4 60.8 88% 29.96 0.0
13 04:35 Calm 10.00 Mostly Cloudy BKN031 BKN039 64.4 59 83% 29.96 0.0
13 04:15 Calm 10.00 Mostly Cloudy SCT032 BKN041 BKN050 66.2 59 78% 29.95 0.0
13 03:55 Calm 10.00 Mostly Cloudy FEW034 SCT040 BKN050 64.4 60.8 88% 29.95 0.0
13 03:35 Calm 10.00 Partly Cloudy FEW041 SCT050 SCT060 66.2 59 78% 29.94 0.0
13 03:15 Calm 9.00 A Few Clouds FEW050 FEW060 68 59 73% 29.94 0.0
13 02:55 Calm 10.00 Partly Cloudy FEW042 SCT050 SCT060 68 59 73% 29.94 0.0
13 02:35 SW 6 9.00 Mostly Cloudy FEW033 SCT042 BKN048 69.8 57.2 64% 29.94 0.0
13 02:15 Calm 10.00 Partly Cloudy FEW036 FEW045 SCT050 69.8 59 69% 29.94 0.0
13 01:35 Calm 10.00 Partly Cloudy FEW047 SCT055 SCT065 71.6 59 65% 29.93 0.0
13 01:15 SE 5 9.00 Fair CLR 69.8 60.8 73% 29.93 0.0
13 00:55 Calm 10.00 Fair CLR 73.4 59 61% 29.93 0.0
13 00:35 Calm 10.00 Fair CLR 75.2 60.8 61% 77 29.93 0.0
13 00:15 Calm 10.00 A Few Clouds FEW065 75.2 59 57% 78 29.93 0.0
12 23:55 Calm 9.00 Mostly Cloudy FEW046 SCT060 BKN070 77 59 54% 79 29.92 0.0
12 23:35 Calm 9.00 Mostly Cloudy FEW045 BKN060 BKN070 75.2 60.8 61% 77 29.91 0.0
12 23:15 Calm 9.00 Mostly Cloudy FEW046 SCT055 BKN065 77 60.8 57% 79 29.91 0.0
12 22:55 Calm 8.00 A Few Clouds FEW060 78.8 59 51% 80 29.9 0.0
12 22:35 Calm 10.00 Fair CLR 84.2 59 43% 84 29.9 0.0
12 22:15 Calm 10.00 Fair CLR 82.4 59 45% 82 29.88 0.0
12 21:55 Calm 9.00 Fair CLR 84.2 59 43% 84 29.87 0.0
12 21:35 Calm 8.00 Fair CLR 84.2 59 43% 84 29.87 0.0
12 21:15 Calm 9.00 Fair CLR 89.6 55.4 31% 88 29.87 0.0
12 20:55 Calm 9.00 Fair CLR 91.4 57.2 32% 90 29.87 0.0
12 20:35 Calm 9.00 Fair CLR 95 53.6 25% 93 29.87 0.0
12 20:15 Calm 9.00 Fair CLR 98.6 51.8 21% 96 29.87 0.0
12 19:55 NE 3 9.00 Fair CLR 100.4 48.2 17% 97 29.87 0.0
12 19:35 NE 5 10.00 Fair CLR 100.4 48.2 17% 97 29.86 0.0
12 19:15 NE 7 10.00 Fair CLR 102.2 46.4 15% 98 29.86 0.0
12 18:55 NE 8 9.00 Fair CLR 102.2 44.6 14% 98 29.87 0.0
12 18:35 NE 7 9.00 Fair CLR 102.2 44.6 14% 98 29.87 0.0
12 18:15 N 8 9.00 Fair CLR 102.2 46.4 15% 98 29.88 0.0
12 17:55 N 7 10.00 Fair CLR 102.2 46.4 15% 98 29.89 0.0
12 17:35 NW 6 9.00 Fair CLR 102.2 44.6 14% 98 29.9 0.0
12 17:15 N 6 10.00 Fair CLR 102.2 46.4 15% 98 29.9 0.0
12 16:55 N 6 10.00 Fair CLR 100.4 46.4 16% 97 29.91 0.0
12 16:35 Vrbl 5 10.00 Fair CLR 100.4 46.4 16% 97 29.92 0.0
12 16:15 NE 9 9.00 Fair CLR 100.4 46.4 16% 97 29.93 0.0
12 15:55 NE 9 G 15 10.00 Fair CLR 100.4 48.2 17% 97 29.93 0.0
12 15:35 N 7 10.00 Fair CLR 98.6 46.4 17% 95 29.94 0.0
Date Time (mdt) Wind (mph) Vis. (mi.) Weather Sky Cond. Air Dwpt Max. Min. Relative Humidity Wind Chill (°F) Heat Index (°F) altimeter (in) sea level (mb) 1 hr 3 hr 6 hr
6 hour
Temperature (ºF) Pressure Precipitation (in)